| time (UTC) | temp C | wind direction | speed KPH | gust KPH | rain 1hr cm | rain 24hr cm | rain mn cm | humidity % | barometer mb |
| 20260507155003 | 14 | 326 | 1.6 | 8.0 | 0.00 | 0.15 | 0.15 | 57 | 1012.1 |
| 20260507154024 | 13 | 326 | 0.0 | 6.4 | 0.00 | 0.15 | 0.15 | 58 | 1012.1 |
| 20260507153002 | 13 | 331 | 1.6 | 6.4 | 0.00 | 0.15 | 0.15 | 56 | 1012.2 |
| 20260507152003 | 13 | 284 | 0.0 | 3.2 | 0.00 | 0.15 | 0.15 | 59 | 1012.6 |
| 20260507151024 | 13 | 296 | 0.0 | 4.8 | 0.00 | 0.15 | 0.15 | 61 | 1012.5 |
| 20260507150004 | 12 | 319 | 0.0 | 6.4 | 0.00 | 0.18 | 0.15 | 61 | 1012.6 |
| 20260507145002 | 12 | 336 | 1.6 | 6.4 | 0.00 | 0.18 | 0.15 | 60 | 1012.8 |
| 20260507144002 | 12 | 358 | 0.0 | 4.8 | 0.00 | 0.23 | 0.15 | 59 | 1012.9 |
| 20260507143024 | 12 | 360 | 0.0 | 3.2 | 0.00 | 0.25 | 0.15 | 60 | 1013.0 |
| 20260507142003 | 12 | 2 | 1.6 | 11.3 | 0.00 | 0.25 | 0.15 | 59 | 1013.0 |
| 20260507141003 | 12 | 345 | 1.6 | 4.8 | 0.00 | 0.25 | 0.15 | 60 | 1013.1 |
| 20260507140045 | 12 | 339 | 1.6 | 6.4 | 0.00 | 0.25 | 0.15 | 60 | 1013.1 |
| 20260507135045 | 12 | 357 | 1.6 | 6.4 | 0.00 | 0.28 | 0.15 | 63 | 1013.1 |
| 20260507134003 | 12 | 342 | 1.6 | 6.4 | 0.00 | 0.30 | 0.15 | 64 | 1013.4 |
| 20260507133004 | 12 | 350 | 1.6 | 6.4 | 0.00 | 0.38 | 0.15 | 65 | 1013.3 |
| 20260507132045 | 12 | 19 | 0.0 | 4.8 | 0.00 | 0.43 | 0.15 | 66 | 1013.4 |
| 20260507131003 | 12 | 5 | 1.6 | 4.8 | 0.00 | 0.51 | 0.15 | 67 | 1013.0 |
| 20260507130003 | 12 | 343 | 1.6 | 8.0 | 0.00 | 0.58 | 0.15 | 67 | 1013.1 |
| 20260507125107 | 12 | 331 | 0.0 | 4.8 | 0.00 | 0.61 | 0.15 | 68 | 1013.2 |
| 20260507124106 | 12 | 349 | 1.6 | 9.7 | 0.00 | 0.61 | 0.15 | 70 | 1013.1 |
| 20260507123024 | 12 | 14 | 0.0 | 3.2 | 0.00 | 0.64 | 0.15 | 70 | 1013.1 |
| 20260507122003 | 12 | 4 | 1.6 | 6.4 | 0.00 | 0.64 | 0.15 | 68 | 1013.0 |
| 20260507121003 | 12 | 359 | 1.6 | 8.0 | 0.00 | 0.64 | 0.15 | 66 | 1013.0 |
| 20260507120003 | 12 | 341 | 1.6 | 9.7 | 0.00 | 0.66 | 0.15 | 65 | 1013.1 |
| 20260507115003 | 12 | 5 | 1.6 | 9.7 | 0.00 | 0.69 | 0.15 | 66 | 1013.0 |
| 20260507114025 | 12 | 356 | 1.6 | 6.4 | 0.00 | 0.69 | 0.15 | 70 | 1012.8 |
| 20260507113003 | 12 | 11 | 0.0 | 6.4 | 0.00 | 0.69 | 0.15 | 69 | 1012.5 |
| 20260507112024 | 12 | 339 | 1.6 | 8.0 | 0.00 | 0.69 | 0.15 | 68 | 1012.3 |
| 20260507111044 | 12 | 338 | 1.6 | 8.0 | 0.00 | 0.69 | 0.15 | 69 | 1012.5 |
| 20260507110023 | 12 | 1 | 3.2 | 9.7 | 0.00 | 0.69 | 0.15 | 70 | 1012.3 |
| 20260507105001 | 12 | 351 | 1.6 | 8.0 | 0.00 | 0.69 | 0.15 | 71 | 1012.4 |
| 20260507104023 | 12 | 342 | 1.6 | 11.3 | 0.00 | 0.69 | 0.15 | 72 | 1012.2 |
| 20260507103001 | 12 | 342 | 1.6 | 6.4 | 0.00 | 0.69 | 0.15 | 74 | 1012.1 |
| 20260507102001 | 12 | 353 | 1.6 | 6.4 | 0.00 | 0.69 | 0.15 | 76 | 1012.0 |
| 20260507101043 | 12 | 341 | 1.6 | 4.8 | 0.00 | 0.69 | 0.15 | 78 | 1012.0 |
| 20260507100022 | 12 | 323 | 1.6 | 8.0 | 0.00 | 0.69 | 0.15 | 78 | 1011.9 |
| 20260507095023 | 12 | 305 | 1.6 | 4.8 | 0.00 | 0.69 | 0.15 | 79 | 1011.9 |
| 20260507094043 | 12 | 326 | 1.6 | 4.8 | 0.00 | 0.69 | 0.15 | 81 | 1011.8 |
| 20260507093001 | 12 | 0 | 0.0 | 0.0 | 0.00 | 0.69 | 0.15 | 82 | 1011.9 |
| 20260507092001 | 12 | 14 | 0.0 | 8.0 | 0.00 | 0.69 | 0.15 | 81 | 1011.8 |
| 20260507091022 | 12 | 8 | 1.6 | 8.0 | 0.00 | 0.69 | 0.15 | 81 | 1011.5 |
| 20260507090001 | 12 | 333 | 1.6 | 6.4 | 0.00 | 0.69 | 0.15 | 82 | 1011.4 |
| 20260507085001 | 12 | 294 | 0.0 | 4.8 | 0.00 | 0.69 | 0.15 | 83 | 1011.6 |
| 20260507084104 | 12 | 1 | 1.6 | 4.8 | 0.00 | 0.69 | 0.15 | 83 | 1011.6 |
| 20260507083001 | 12 | 18 | 0.0 | 4.8 | 0.00 | 0.69 | 0.15 | 83 | 1011.4 |
| 20260507082001 | 12 | 13 | 0.0 | 4.8 | 0.00 | 0.69 | 0.15 | 83 | 1011.6 |
| 20260507081002 | 12 | 321 | 0.0 | 3.2 | 0.00 | 0.69 | 0.15 | 83 | 1011.4 |
| 20260507080022 | 12 | 323 | 0.0 | 3.2 | 0.00 | 0.69 | 0.15 | 83 | 1011.2 |
| 20260507075001 | 12 | 5 | 1.6 | 8.0 | 0.00 | 0.69 | 0.15 | 83 | 1010.9 |
| 20260507074001 | 12 | 345 | 3.2 | 12.9 | 0.00 | 0.69 | 0.15 | 83 | 1011.1 |
| 20260507073001 | 12 | 360 | 1.6 | 9.7 | 0.00 | 0.69 | 0.15 | 83 | 1011.1 |
| 20260507072002 | 12 | 350 | 1.6 | 14.5 | 0.00 | 0.69 | 0.15 | 83 | 1010.8 |
| 20260507071022 | 12 | 352 | 1.6 | 8.0 | 0.00 | 0.69 | 0.15 | 83 | 1011.0 |
| 20260507070002 | 12 | 357 | 3.2 | 17.7 | 0.00 | 0.69 | 0.15 | 83 | 1010.9 |
| 20260507065002 | 12 | 353 | 3.2 | 11.3 | 0.00 | 0.69 | 0.15 | 84 | 1010.9 |
| 20260507064022 | 12 | 347 | 1.6 | 12.9 | 0.00 | 0.69 | 0.15 | 86 | 1011.0 |
| 20260507063001 | 12 | 347 | 1.6 | 11.3 | 0.00 | 0.69 | 0.15 | 86 | 1011.0 |
| 20260507062001 | 13 | 340 | 1.6 | 6.4 | 0.03 | 0.69 | 0.15 | 87 | 1011.0 |
| 20260507061001 | 13 | 346 | 3.2 | 14.5 | 0.03 | 0.69 | 0.15 | 88 | 1011.0 |
| 20260507060001 | 13 | 343 | 1.6 | 16.1 | 0.03 | 0.69 | 0.15 | 89 | 1010.9 |
| 20260507055002 | 13 | 355 | 3.2 | 11.3 | 0.03 | 0.69 | 0.15 | 90 | 1010.8 |
| 20260507054022 | 13 | 360 | 0.0 | 6.4 | 0.03 | 0.69 | 0.15 | 90 | 1010.8 |
| 20260507053001 | 14 | 3 | 1.6 | 8.0 | 0.03 | 0.69 | 0.15 | 89 | 1011.2 |
| 20260507052043 | 14 | 323 | 0.0 | 1.6 | 0.03 | 0.66 | 0.13 | 89 | 1011.0 |
| 20260507051043 | 14 | 323 | 0.0 | 1.6 | 0.13 | 0.66 | 0.13 | 88 | 1010.7 |
| 20260507050001 | 14 | 322 | 0.0 | 3.2 | 0.13 | 0.66 | 0.13 | 87 | 1010.6 |
| 20260507045022 | 14 | 318 | 0.0 | 4.8 | 0.13 | 0.66 | 0.13 | 86 | 1011.2 |
| 20260507044105 | 15 | 350 | 1.6 | 14.5 | 0.13 | 0.66 | 0.13 | 85 | 1010.7 |
| 20260507043001 | 15 | 355 | 3.2 | 12.9 | 0.13 | 0.66 | 0.13 | 83 | 1011.3 |
| 20260507041001 | 16 | 337 | 0.0 | 6.4 | 0.00 | 0.53 | 0.00 | 80 | 1011.2 |
| 20260507040002 | 16 | 338 | 1.6 | 6.4 | 0.00 | 0.53 | 0.00 | 79 | 1010.8 |
| 20260507035001 | 16 | 353 | 1.6 | 8.0 | 0.00 | 0.53 | 0.53 | 78 | 1010.5 |
| 20260507034023 | 16 | 1 | 3.2 | 12.9 | 0.00 | 0.53 | 0.53 | 79 | 1010.7 |
| 20260507033001 | 17 | 349 | 3.2 | 11.3 | 0.00 | 0.53 | 0.53 | 78 | 1010.8 |
| 20260507032002 | 17 | 2 | 3.2 | 9.7 | 0.00 | 0.53 | 0.53 | 77 | 1010.6 |
| 20260507031022 | 17 | 358 | 3.2 | 6.4 | 0.00 | 0.53 | 0.53 | 78 | 1010.5 |
| 20260507030002 | 17 | 332 | 1.6 | 8.0 | 0.00 | 0.53 | 0.53 | 79 | 1010.2 |
| 20260507025002 | 18 | 318 | 1.6 | 9.7 | 0.00 | 0.53 | 0.53 | 80 | 1009.8 |
| 20260507024024 | 18 | 331 | 3.2 | 12.9 | 0.00 | 0.53 | 0.53 | 79 | 1009.9 |
| 20260507023023 | 18 | 336 | 3.2 | 12.9 | 0.00 | 0.53 | 0.53 | 80 | 1010.0 |
| 20260507022023 | 18 | 345 | 1.6 | 8.0 | 0.00 | 0.53 | 0.53 | 82 | 1009.9 |
| 20260507021001 | 18 | 359 | 1.6 | 6.4 | 0.00 | 0.53 | 0.53 | 81 | 1009.4 |
| 20260507020002 | 18 | 9 | 1.6 | 6.4 | 0.00 | 0.53 | 0.53 | 81 | 1009.5 |
| 20260507015001 | 19 | 12 | 0.0 | 4.8 | 0.00 | 0.53 | 0.53 | 81 | 1009.7 |
| 20260507014002 | 19 | 347 | 1.6 | 6.4 | 0.00 | 0.53 | 0.53 | 82 | 1009.6 |
| 20260507013002 | 19 | 12 | 3.2 | 8.0 | 0.00 | 0.53 | 0.53 | 82 | 1009.4 |
| 20260507012044 | 19 | 330 | 3.2 | 8.0 | 0.00 | 0.53 | 0.53 | 84 | 1009.8 |
| 20260507011002 | 20 | 360 | 0.0 | 3.2 | 0.00 | 0.53 | 0.53 | 86 | 1010.0 |
| 20260507010023 | 20 | 1 | 1.6 | 4.8 | 0.00 | 0.53 | 0.53 | 85 | 1009.8 |
| 20260507005105 | 20 | 252 | 0.0 | 3.2 | 0.00 | 0.53 | 0.53 | 85 | 1009.7 |
| 20260507004023 | 20 | 0 | 0.0 | 0.0 | 0.00 | 0.53 | 0.53 | 84 | 1009.5 |
| 20260507003002 | 20 | 0 | 0.0 | 0.0 | 0.00 | 0.53 | 0.53 | 84 | 1009.4 |
| 20260507002002 | 20 | 0 | 0.0 | 0.0 | 0.00 | 0.53 | 0.53 | 83 | 1009.6 |
| 20260507001024 | 20 | 0 | 0.0 | 0.0 | 0.00 | 0.53 | 0.53 | 83 | 1009.3 |
| 20260507000003 | 20 | 0 | 0.0 | 0.0 | 0.00 | 0.53 | 0.53 | 82 | 1009.1 |
| 20260506235105 | 21 | 0 | 0.0 | 0.0 | 0.00 | 0.53 | 0.53 | 81 | 1009.1 |
| 20260506234002 | 21 | 0 | 0.0 | 0.0 | 0.00 | 0.53 | 0.53 | 81 | 1008.9 |
| 20260506233023 | 21 | 186 | 0.0 | 1.6 | 0.00 | 0.53 | 0.53 | 80 | 1008.7 |
| 20260506232002 | 21 | 186 | 0.0 | 3.2 | 0.00 | 0.53 | 0.53 | 80 | 1008.6 |
| 20260506231002 | 21 | 214 | 0.0 | 4.8 | 0.00 | 0.53 | 0.53 | 79 | 1008.5 |
| 20260506230024 | 21 | 238 | 0.0 | 3.2 | 0.00 | 0.53 | 0.53 | 79 | 1008.4 |
| 20260506225002 | 21 | 189 | 1.6 | 8.0 | 0.00 | 0.53 | 0.53 | 79 | 1008.5 |
| 20260506224002 | 21 | 177 | 1.6 | 9.7 | 0.00 | 0.53 | 0.53 | 79 | 1008.5 |
| 20260506223045 | 21 | 156 | 1.6 | 8.0 | 0.00 | 0.53 | 0.53 | 79 | 1008.3 |
| 20260506222023 | 21 | 169 | 1.6 | 12.9 | 0.00 | 0.53 | 0.53 | 79 | 1008.3 |
| 20260506221002 | 21 | 172 | 3.2 | 14.5 | 0.00 | 0.53 | 0.53 | 79 | 1008.3 |
| 20260506220023 | 21 | 162 | 3.2 | 9.7 | 0.00 | 0.53 | 0.53 | 79 | 1008.4 |
| 20260506215002 | 21 | 154 | 3.2 | 11.3 | 0.00 | 0.53 | 0.53 | 79 | 1008.4 |
| 20260506214045 | 21 | 154 | 3.2 | 14.5 | 0.00 | 0.53 | 0.53 | 78 | 1008.3 |
| 20260506213105 | 21 | 154 | 4.8 | 14.5 | 0.00 | 0.53 | 0.53 | 78 | 1008.4 |
| 20260506212002 | 21 | 166 | 3.2 | 11.3 | 0.00 | 0.53 | 0.53 | 79 | 1008.2 |
| 20260506211002 | 21 | 173 | 3.2 | 11.3 | 0.00 | 0.53 | 0.53 | 79 | 1008.3 |
| 20260506210002 | 21 | 171 | 4.8 | 17.7 | 0.00 | 0.53 | 0.53 | 79 | 1008.2 |
| 20260506205023 | 21 | 159 | 4.8 | 12.9 | 0.00 | 0.53 | 0.53 | 79 | 1008.1 |
| 20260506204044 | 21 | 165 | 4.8 | 17.7 | 0.00 | 0.53 | 0.53 | 79 | 1007.8 |
| 20260506203024 | 21 | 164 | 3.2 | 14.5 | 0.00 | 0.53 | 0.53 | 80 | 1007.7 |
| 20260506202105 | 21 | 158 | 4.8 | 14.5 | 0.00 | 0.53 | 0.53 | 79 | 1007.9 |
| 20260506201023 | 21 | 168 | 4.8 | 16.1 | 0.00 | 0.53 | 0.53 | 79 | 1007.8 |
| 20260506200002 | 21 | 175 | 3.2 | 11.3 | 0.00 | 0.53 | 0.53 | 79 | 1008.1 |
| 20260506195002 | 21 | 166 | 3.2 | 11.3 | 0.00 | 0.53 | 0.53 | 79 | 1008.1 |
| 20260506194002 | 21 | 167 | 3.2 | 11.3 | 0.00 | 0.53 | 0.53 | 80 | 1008.2 |
| 20260506193002 | 21 | 155 | 4.8 | 14.5 | 0.00 | 0.53 | 0.53 | 81 | 1008.2 |
| 20260506192002 | 20 | 156 | 4.8 | 16.1 | 0.00 | 0.53 | 0.53 | 81 | 1008.2 |
| 20260506191023 | 20 | 154 | 4.8 | 16.1 | 0.00 | 0.53 | 0.53 | 81 | 1008.4 |
| 20260506190044 | 20 | 178 | 3.2 | 17.7 | 0.00 | 0.53 | 0.53 | 82 | 1008.5 |
| 20260506185002 | 20 | 162 | 3.2 | 16.1 | 0.00 | 0.53 | 0.53 | 83 | 1008.8 |
| 20260506184002 | 19 | 170 | 3.2 | 14.5 | 0.00 | 0.53 | 0.53 | 82 | 1008.8 |
| 20260506183004 | 19 | 159 | 3.2 | 14.5 | 0.00 | 0.53 | 0.53 | 83 | 1008.9 |
| 20260506182045 | 19 | 165 | 4.8 | 17.7 | 0.00 | 0.53 | 0.53 | 83 | 1008.6 |
| 20260506181044 | 19 | 163 | 4.8 | 17.7 | 0.00 | 0.53 | 0.53 | 83 | 1008.9 |
| 20260506180024 | 19 | 158 | 4.8 | 16.1 | 0.00 | 0.53 | 0.53 | 83 | 1009.0 |
| 20260506175024 | 18 | 153 | 4.8 | 14.5 | 0.00 | 0.53 | 0.53 | 84 | 1008.9 |
| 20260506174004 | 18 | 168 | 4.8 | 14.5 | 0.00 | 0.53 | 0.53 | 84 | 1009.0 |
| 20260506173023 | 18 | 155 | 4.8 | 22.5 | 0.00 | 0.53 | 0.53 | 85 | 1009.2 |
| 20260506172023 | 18 | 165 | 4.8 | 17.7 | 0.00 | 0.53 | 0.53 | 85 | 1009.4 |
| 20260506171002 | 18 | 163 | 6.4 | 17.7 | 0.00 | 0.53 | 0.53 | 86 | 1009.2 |
| 20260506170023 | 18 | 162 | 4.8 | 16.1 | 0.00 | 0.53 | 0.53 | 86 | 1009.3 |
| 20260506165045 | 18 | 159 | 4.8 | 19.3 | 0.00 | 0.53 | 0.53 | 87 | 1009.4 |
| 20260506164023 | 17 | 156 | 4.8 | 17.7 | 0.00 | 0.53 | 0.53 | 88 | 1009.4 |
| 20260506163045 | 17 | 162 | 4.8 | 17.7 | 0.00 | 0.53 | 0.53 | 90 | 1009.6 |
| 20260506162002 | 17 | 175 | 3.2 | 16.1 | 0.00 | 0.53 | 0.53 | 92 | 1009.4 |
| 20260506161024 | 17 | 163 | 3.2 | 16.1 | 0.00 | 0.53 | 0.53 | 92 | 1009.4 |
| 20260506160003 | 17 | 164 | 4.8 | 14.5 | 0.03 | 0.53 | 0.53 | 92 | 1009.5 |